Content
SEND FEEDBACK

Daily
Averages
Monthly
Summary
Switzerland

PAYERNE, SWITZERLAND


Home > Europe > Switzerland
Elevation: 1463 feet     Latitude: 46 50N     Longitude: 006 55E

WEATHER
 
SELECT A DAY
Number of Records: 87,180;   Date Range: 12/15/98 - 9/20/14
 
SHARE

PRINT THIS DATA

[ ← Previous Day ]
WEATHER ALMANAC - APRIL 17, 2013
[ Next Day → ]
[ °C ]   °F
Weather ElementAverageHighLow
Temperature55 °F68 °F (3:50 pm)41 °F (4:50 am)
Dewpoint41.2 °F48.2 °F (9:20 am)32 °F (5:20 pm)
Humidity64.7 %100 % (5:20 am)26 % (5:20 pm)
Barometer30.24 in30.30 in (4:50 am)30.18 in (5:20 pm)
Wind Speed2.9 mph9.2 mph (11:20 am)
Weather ElementAverage
Visibility6.2 mi
Wind DirectionENE (81.3 °)

Weather ElementTotal
Precipitation---
Heating Degree Days10.5 (Base 65)
Growing Degree Days4.5 (Base 50)
Averaged from 46 records on April 17, 2013
WEATHER CONDITIONS BREAKOUT
WIND DIRECTION BREAKOUT
WEATHER BY HOUR - APRIL 17, 2013
[ °C ]   °F
Local TimeTemperatureDewpointHumidityBarometerVisibilityWind DirectionWind SpeedGust SpeedPrecipitationEventsConditions
12:50 AM48.2 °F44.6 °F87 %30.27 in6.2 miVariable1.2 mph
1:20 AM46.4 °F42.8 °F87 %30.27 in6.2 miCalm
1:50 AM46.4 °F42.8 °F87 %30.27 in6.2 miVariable1.2 mph
2:20 AM46.4 °F42.8 °F87 %30.27 in6.2 miWNW (290°)1.2 mph
2:50 AM44.6 °F41.0 °F87 %30.27 inCalmClear
3:20 AM42.8 °F41.0 °F93 %30.27 inCalmClear
3:50 AM42.8 °F39.2 °F87 %30.27 inVariable1.2 mphClear
4:20 AM42.8 °F41.0 °F93 %30.27 inCalmClear
4:50 AM41.0 °F39.2 °F93 %30.30 inCalmClear
5:20 AM41.0 °F41.0 °F100 %30.30 inCalmClear
5:50 AM41.0 °F41.0 °F100 %30.27 inCalmClear
6:20 AM41.0 °F39.2 °F93 %30.27 inVariable1.2 mphClear
6:50 AM42.8 °F41.0 °F93 %30.27 inVariable1.2 mphClear
7:20 AM41.0 °F41.0 °F100 %30.27 inVariable1.2 mphClear
7:50 AM44.6 °F42.8 °F93 %30.27 inCalmClear
8:20 AM46.4 °F44.6 °F93 %30.27 inVariable1.2 mphClear
8:50 AM50.0 °F44.6 °F82 %30.27 inVariable1.2 mphClear
9:20 AM57.2 °F48.2 °F72 %30.27 inVariable1.2 mphClear
9:50 AM57.2 °F46.4 °F67 %30.27 inVariable2.3 mphClear
10:20 AM59.0 °F46.4 °F63 %30.27 inESE (110°)5.8 mphClear
10:50 AM59.0 °F46.4 °F63 %30.27 inESE (120°)5.8 mphClear
11:20 AM60.8 °F44.6 °F55 %30.27 inSE (140°)9.2 mphClear
11:50 AM60.8 °F46.4 °F59 %30.27 inEast (90°)4.6 mphClear
12:20 PM60.8 °F42.8 °F52 %30.27 inESE (110°)4.6 mphClear
12:50 PM62.6 °F44.6 °F52 %30.27 inSSE (150°)4.6 mphClear
1:20 PM64.4 °F42.8 °F45 %30.24 inSouth (190°)4.6 mphClear
1:50 PM64.4 °F44.6 °F49 %30.24 inSE (140°)5.8 mphClear
2:20 PM66.2 °F41.0 °F40 %30.24 inSouth (180°)4.6 mphClear
2:50 PM66.2 °F37.4 °F35 %30.24 inSouth (170°)5.8 mphClear
3:20 PM66.2 °F39.2 °F37 %30.21 inSouth (170°)5.8 mphClear
3:50 PM68.0 °F41.0 °F37 %30.21 inSouth (180°)6.9 mphClear
4:20 PM66.2 °F41.0 °F40 %30.21 inVariable4.6 mphClear
4:50 PM68.0 °F39.2 °F35 %30.21 inSSW (200°)5.8 mphClear
5:20 PM68.0 °F32.0 °F26 %30.18 inSSW (200°)8.1 mphClear
5:50 PM68.0 °F33.8 °F28 %30.18 inSSW (200°)6.9 mphClear
6:20 PM68.0 °F32.0 °F26 %30.18 inSouth (180°)6.9 mphClear
6:50 PM68.0 °F39.2 °F35 %30.18 inSSE (160°)5.8 mphClear
7:20 PM66.2 °F39.2 °F37 %30.18 inSouth (190°)5.8 mphClear
7:50 PM62.6 °F41.0 °F45 %30.18 inVariable2.3 mphClear
8:20 PM59.0 °F39.2 °F48 %30.18 inNW (310°)3.5 mphClear
8:50 PM55.4 °F41.0 °F58 %30.18 inVariable1.2 mphClear
9:20 PM53.6 °F39.2 °F58 %30.18 inCalmClear
9:50 PM51.8 °F39.2 °F62 %30.18 inCalmClear
10:50 PM50.0 °F39.2 °F66 %30.18 inCalmClear
11:20 PM50.0 °F39.2 °F66 %30.18 inCalmClear
11:50 PM51.8 °F41.0 °F67 %30.18 inWest (260°)1.2 mphClear
Hourly data recorded from LSGC, located miles away from Payerne, Switzerland







STORIES FROM OUR PARTNERS